Location: Grambois
(43.7619°N, 5.5873°E)
Time: 08:57:36
(UTC+00:00)

BREEZE-M DEB (TANK) - Pass Details

Date: 06 October 2020
Orbit: 333 x 12040 km, 49.7° (Epoch: 22 October)

Event Time Altitude Azimuth Distance (km) Brightness Sun altitude
Rises 23:59:21 0° 141° (SE) 14,811 9.1 -50.8°
Reaches altitude 10° 00:20:17 10° 129° (SE) 15,437 9.2 -49.6°
Maximum altitude 01:17:44 24° 95° (E) 13,888 9.3 -44.3°
Drops below altitude 10° 01:54:55 10° 60° (ENE) 11,125 9.4 -39.5°
Sets 02:04:05 0° 51° (NE) 10,609 9.6 -38.1°
